[[{"header":{"parameterUnit":"m.s-1","parameterCategory":1,"la1":30.2992,"la2":30.254,"lo1":-89.0895,"lo2":-89.0443,"dy":0.0025,"dx":0.0025,"nx":19,"ny":19,"refTime":"2026-03-07T09:00:00:Z","depth":0,"parameterNumber":2,"parameterNumberName":"U-component_of_WINDS"},"data":[0,0,0,-4.181,-4.1813,-4.197,-4.1971,-4.2173,-4.2175,0,0,0,0,0,0,0,0,0,0,0,-4.1764,-4.1765,-4.1809,-4.1813,-4.197,-4.1971,-4.2173,-4.2175,0,0,0,0,0,0,0,0,0,0,0,-4.1763,-4.1765,-4.1767,-4.1814,-4.197,-4.1971,-4.2173,-4.2054,0,0,0,0,0,0,0,0,0,0,-4.1901,-4.1859,-4.1765,-4.1767,-4.1815,-4.197,-4.1971,-4.2048,-4.2061,-4.2103,0,-4.214,0,-4.2161,-4.2189,-4.219,0,0,0,-4.1813,-4.1848,-4.189,-4.1767,-4.1816,-4.1969,-4.1899,-4.2055,-4.207,-4.2121,-4.2143,-4.215,-4.2164,-4.219,-4.2191,-4.2435,-4.2436,0,0,-4.1804,-4.1792,-4.188,-4.19,-4.1875,-4.1894,-4.1904,-4.2064,-4.2088,-4.2144,-4.2155,-4.2168,-4.2192,-4.2193,-4.2434,-4.2435,0,0,0,-4.178,-4.1786,-4.1824,-4.1891,-4.1919,-4.1899,-4.191,-4.2081,-4.2094,-4.2157,-4.217,-4.2193,-4.2195,-4.2433,-4.2435,-4.248,0,0,0,-4.1774,-4.1772,-4.182,-4.1815,-4.1916,-4.2002,-4.1923,-4.2083,-4.2101,-4.2169,-4.2193,-4.2197,-4.2431,-4.2434,-4.2476,-4.2503,0,0,0,-4.1754,-4.177,-4.1793,-4.1814,-4.1881,-4.2,-4.2022,-4.2087,-4.2109,-4.219,-4.2198,-4.2431,-4.2433,-4.2472,-4.2497,-4.2564,0,0,0,-4.1728,-4.183,-4.1793,-4.1913,-4.1879,-4.2027,-4.2021,-4.2132,-4.2206,-4.2194,-4.2432,-4.2434,-4.2471,-4.2494,-4.256,-4.2617,-4.264,0,0,-4.185,-4.1845,-4.1916,-4.1888,-4.2038,-4.2004,-4.2162,-4.2241,-4.226,-4.2376,-4.2382,-4.2477,-4.2497,-4.2563,-4.2774,-4.2792,0,0,0,-4.1951,-4.2002,-4.2045,-4.2115,-4.2179,-4.2236,-4.2293,-4.2323,-4.2422,-4.2317,-4.252,-4.2532,-4.2572,-4.2599,-4.2615,-4.2649,-4.2447,-4.2447,-4.2446,-4.2106,-4.2126,-4.2246,-4.2285,-4.2353,-4.2412,-4.247,-4.252,-4.2518,-4.2567,-4.26,-4.2726,-4.2758,-4.277,-4.2805,-4.2633,-4.2633,-4.2633,-4.2634,-4.2288,-4.2363,-4.2361,-4.2476,-4.2497,-4.2594,-4.2656,-4.2652,-4.2746,-4.2701,-4.2737,-4.2685,-4.2789,-4.2821,-4.2637,-4.2637,-4.2636,-4.2636,-4.2635,-4.2391,-4.243,-4.2466,-4.2571,-4.265,-4.2687,-4.2778,-4.2793,-4.2808,-4.2844,-4.2882,-4.2881,-4.2882,-4.2861,-4.2861,-4.2862,-4.2862,-4.2863,-4.2863,-4.2483,-4.2521,-4.2596,-4.2674,-4.2722,-4.2788,-4.285,-4.2898,-4.2956,-4.296,-4.296,-4.2954,-4.2796,-4.2755,-4.287,-4.2868,-4.2868,-4.2867,-4.2867,-4.2657,-4.2621,-4.2736,-4.2784,-4.2878,-4.2957,-4.2976,-4.3074,-4.3116,-4.3161,-4.3149,-4.3029,-4.3024,-4.3012,-4.2978,-4.3144,-4.3144,-4.3144,-4.3144,-4.2743,-4.2743,-4.2865,-4.2942,-4.3019,-4.3049,-4.318,-4.323,-4.3277,-4.3304,-4.3283,-4.324,-4.3228,-4.323,-4.3213,-4.3182,-4.3396,-4.3396,-4.3397,-4.2852,-4.286,-4.2967,-4.3012,-4.3087,-4.3152,-4.3276,-4.3365,-4.341,-4.3407,-4.3327,-4.3316,-4.3247,-4.3224,-4.3216,-4.319,-4.3133,0,0]},{"header":{"parameterUnit":"m.s-1","parameterCategory":1,"la1":30.2992,"la2":30.254,"lo1":-89.0895,"lo2":-89.0443,"dy":0.0025,"dx":0.0025,"nx":19,"ny":19,"refTime":"2026-03-07T09:00:00:Z","depth":0,"parameterNumber":3,"parameterNumberName":"V-component_of_WINDS"},"data":[0,0,0,3.2212,3.2212,3.2253,3.2253,3.2302,3.2302,0,0,0,0,0,0,0,0,0,0,0,3.2199,3.2199,3.2212,3.2213,3.2253,3.2253,3.2302,3.2302,0,0,0,0,0,0,0,0,0,0,0,3.2198,3.2199,3.2199,3.2213,3.2252,3.2253,3.2302,3.2272,0,0,0,0,0,0,0,0,0,0,3.2234,3.222,3.2199,3.2199,3.2213,3.2252,3.2253,3.2271,3.2274,3.2283,0,3.2291,0,3.2298,3.2306,3.2306,0,0,0,3.2213,3.2217,3.223,3.2199,3.2213,3.2252,3.2235,3.2273,3.2276,3.2287,3.2292,3.2294,3.2298,3.2306,3.2306,3.236,3.236,0,0,3.2211,3.2205,3.2227,3.2232,3.2226,3.2233,3.2236,3.2275,3.2279,3.2292,3.2295,3.2299,3.2306,3.2307,3.236,3.236,0,0,0,3.2204,3.2203,3.2214,3.223,3.2237,3.2234,3.2237,3.2277,3.2281,3.2295,3.23,3.2306,3.2307,3.236,3.236,3.2367,0,0,0,3.2203,3.2199,3.2213,3.221,3.2237,3.2258,3.2239,3.2279,3.2283,3.23,3.2306,3.2308,3.2359,3.236,3.2366,3.237,0,0,0,3.2196,3.2198,3.2204,3.221,3.2227,3.2257,3.2264,3.228,3.2286,3.2306,3.2308,3.2359,3.236,3.2365,3.2369,3.2385,0,0,0,3.2187,3.2207,3.2204,3.2228,3.2226,3.2261,3.2264,3.2289,3.2307,3.2307,3.2359,3.236,3.2365,3.2369,3.2384,3.2396,3.2401,0,0,3.2209,3.2209,3.2224,3.2223,3.2257,3.2256,3.2291,3.2312,3.2318,3.2346,3.2347,3.2366,3.2369,3.2384,3.2428,3.2432,0,0,0,3.2229,3.224,3.225,3.2268,3.2287,3.2303,3.232,3.2328,3.2353,3.2332,3.2376,3.2378,3.2387,3.2393,3.2396,3.2405,3.2363,3.2362,3.2362,3.2249,3.2259,3.2286,3.2302,3.2319,3.2339,3.2354,3.2369,3.2371,3.2382,3.239,3.2416,3.2423,3.2425,3.2435,3.2397,3.2397,3.2397,3.2397,3.2282,3.2299,3.2307,3.2336,3.2347,3.237,3.2392,3.2393,3.2418,3.2409,3.2418,3.2409,3.2429,3.2438,3.2398,3.2398,3.2398,3.2398,3.2398,3.2296,3.2307,3.2319,3.2349,3.2371,3.2387,3.2411,3.242,3.2428,3.2436,3.2447,3.2447,3.2449,3.2441,3.2441,3.2441,3.2441,3.2441,3.2441,3.2306,3.232,3.2339,3.2364,3.2379,3.24,3.2423,3.2438,3.2456,3.2461,3.2461,3.2464,3.2429,3.2421,3.2443,3.2443,3.2442,3.2442,3.2442,3.2335,3.2331,3.2362,3.2377,3.2409,3.2432,3.2445,3.2475,3.2489,3.2501,3.2504,3.2477,3.2477,3.2475,3.2468,3.2501,3.2501,3.2501,3.2501,3.2347,3.235,3.2385,3.241,3.2435,3.2451,3.2488,3.2507,3.2526,3.2536,3.2533,3.2524,3.2522,3.2524,3.252,3.2514,3.2558,3.2558,3.2558,3.2366,3.2373,3.2401,3.2422,3.2449,3.2473,3.2508,3.2536,3.2557,3.2561,3.2544,3.2542,3.2528,3.2523,3.2524,3.2519,3.2507,0,0]}]]